EJU66X EGKK-EHAM

Flight info

Callsign EJU66X
Flight time 0h 48m
Altitude 29000
Route FRANE M604 GASBA M197 REDFA
Aircraft A20N/M-SDE2E3FGHIJ1RWXYZ/LB1G1

Departure

Time 2026-05-03 21:05
Airport London Gatwick Airport (EGKK)

Arrival

Time 2026-05-03 21:53
Airport Amsterdam Airport Schiphol (EHAM)
Time Latitude Longitude Altitude Speed Heading
2026-05-03 20:52 51.15484 -0.16444 205 ft 0 kts 77°
2026-05-03 20:54 51.15482 -0.16458 205 ft 2 kts 75°
2026-05-03 20:55 51.15478 -0.16483 214 ft 2 kts 74°
2026-05-03 20:55 51.15473 -0.16509 214 ft 2 kts 70°
2026-05-03 20:55 51.15467 -0.16533 212 ft 2 kts 65°
2026-05-03 20:55 51.15461 -0.16556 212 ft 2 kts 71°
2026-05-03 20:56 51.15459 -0.16562 217 ft 1 kts 75°
2026-05-03 20:56 51.15460 -0.16557 217 ft 0 kts 74°
2026-05-03 20:59 51.15462 -0.16550 211 ft 3 kts 74°
2026-05-03 20:59 51.15464 -0.16532 211 ft 0 kts 80°
2026-05-03 20:59 51.15464 -0.16528 212 ft 2 kts 81°
2026-05-03 20:59 51.15465 -0.16514 215 ft 0 kts 86°
2026-05-03 21:00 51.15465 -0.16509 212 ft 0 kts 86°
2026-05-03 21:01 51.15445 -0.16476 213 ft 11 kts 163°
2026-05-03 21:01 51.15332 -0.16473 205 ft 19 kts 170°
2026-05-03 21:01 51.15287 -0.16574 209 ft 12 kts 260°
2026-05-03 21:02 51.15250 -0.16641 208 ft 0 kts 182°
2026-05-03 21:04 51.15132 -0.16695 203 ft 17 kts 253°
2026-05-03 21:04 51.15114 -0.16820 213 ft 20 kts 257°
2026-05-03 21:04 51.14968 -0.17893 211 ft 126 kts 258°
2026-05-03 21:05 51.14824 -0.18945 225 ft 165 kts 258°
2026-05-03 21:05 51.14557 -0.20804 862 ft 170 kts 258°
2026-05-03 21:05 51.14239 -0.23220 2152 ft 166 kts 258°
2026-05-03 21:05 51.14081 -0.24450 2565 ft 177 kts 258°
2026-05-03 21:06 51.13818 -0.26477 3108 ft 197 kts 258°
2026-05-03 21:06 51.13682 -0.28740 3604 ft 216 kts 279°
2026-05-03 21:06 51.14305 -0.30999 3798 ft 231 kts 311°
2026-05-03 21:06 51.15619 -0.32436 3910 ft 233 kts 343°
2026-05-03 21:07 51.17222 -0.32540 3998 ft 235 kts 15°
2026-05-03 21:07 51.18633 -0.31277 4060 ft 236 kts 46°
2026-05-03 21:07 51.19454 -0.29032 4064 ft 236 kts 72°
2026-05-03 21:07 51.19823 -0.26487 4061 ft 236 kts 81°
2026-05-03 21:08 51.20056 -0.23893 4064 ft 236 kts 82°
2026-05-03 21:08 51.20286 -0.21302 4064 ft 236 kts 82°
2026-05-03 21:08 51.20561 -0.18655 4073 ft 258 kts 80°
2026-05-03 21:08 51.20907 -0.15774 4061 ft 268 kts 79°
2026-05-03 21:09 51.21287 -0.12837 4190 ft 272 kts 78°
2026-05-03 21:09 51.21684 -0.09857 4627 ft 277 kts 78°
2026-05-03 21:09 51.21946 -0.07887 4713 ft 272 kts 78°
2026-05-03 21:10 51.23228 0.01856 5061 ft 274 kts 78°
2026-05-03 21:10 51.23615 0.04826 5058 ft 273 kts 78°
2026-05-03 21:10 51.24125 0.08762 5066 ft 274 kts 78°
2026-05-03 21:11 51.24385 0.10769 5066 ft 274 kts 78°
2026-05-03 21:11 51.24769 0.13743 5061 ft 274 kts 78°
2026-05-03 21:11 51.25152 0.16715 5056 ft 273 kts 78°
2026-05-03 21:11 51.25423 0.19716 5068 ft 274 kts 88°
2026-05-03 21:12 51.25337 0.22709 5068 ft 273 kts 97°
2026-05-03 21:12 51.25118 0.25765 5066 ft 273 kts 96°
2026-05-03 21:12 51.24917 0.28742 5064 ft 273 kts 96°
2026-05-03 21:12 51.24717 0.31761 5059 ft 273 kts 96°
2026-05-03 21:13 51.24515 0.34819 5053 ft 273 kts 96°
2026-05-03 21:13 51.24315 0.37828 5054 ft 273 kts 96°
2026-05-03 21:13 51.24114 0.40841 5053 ft 273 kts 96°
2026-05-03 21:13 51.23913 0.43820 5061 ft 273 kts 96°
2026-05-03 21:14 51.23710 0.46840 5101 ft 275 kts 96°
2026-05-03 21:14 51.23503 0.49893 5516 ft 278 kts 96°
2026-05-03 21:14 51.23296 0.52956 6523 ft 277 kts 95°
2026-05-03 21:14 51.23477 0.56002 7498 ft 280 kts 70°
2026-05-03 21:15 51.24483 0.58651 8402 ft 283 kts 44°
2026-05-03 21:15 51.26133 0.60343 9301 ft 285 kts 18°
2026-05-03 21:15 51.28096 0.60771 10180 ft 288 kts 358°
2026-05-03 21:15 51.30162 0.60586 10647 ft 309 kts 358°
2026-05-03 21:16 51.32391 0.60836 10981 ft 333 kts
2026-05-03 21:16 51.34716 0.61438 11622 ft 342 kts
2026-05-03 21:16 51.37058 0.62202 12459 ft 346 kts 11°
2026-05-03 21:16 51.39422 0.63057 13256 ft 350 kts 12°
2026-05-03 21:17 51.41804 0.63958 14026 ft 354 kts 13°
2026-05-03 21:17 51.44209 0.64881 14769 ft 358 kts 13°
2026-05-03 21:17 51.46647 0.65816 15511 ft 362 kts 13°
2026-05-03 21:17 51.49108 0.66758 16220 ft 366 kts 13°
2026-05-03 21:18 51.51599 0.67708 16908 ft 370 kts 13°
2026-05-03 21:18 51.54118 0.68669 17578 ft 374 kts 13°
2026-05-03 21:18 51.56658 0.69638 18229 ft 377 kts 13°
2026-05-03 21:18 51.59225 0.70617 18871 ft 381 kts 13°
2026-05-03 21:19 51.61821 0.71605 19493 ft 385 kts 13°
2026-05-03 21:19 51.64436 0.72600 20098 ft 388 kts 13°
2026-05-03 21:19 51.67081 0.73608 20693 ft 392 kts 13°
2026-05-03 21:19 51.69744 0.74625 21279 ft 395 kts 13°
2026-05-03 21:20 51.72379 0.75632 21829 ft 399 kts 13°
2026-05-03 21:20 51.75103 0.76612 22382 ft 402 kts
2026-05-03 21:20 51.77871 0.77392 22902 ft 406 kts 13°
2026-05-03 21:20 51.80540 0.78890 23420 ft 410 kts 26°
2026-05-03 21:21 51.82916 0.81453 23917 ft 414 kts 41°
2026-05-03 21:21 51.84814 0.84965 24403 ft 418 kts 57°
2026-05-03 21:21 51.86099 0.89181 24876 ft 421 kts 71°
2026-05-03 21:21 51.86763 0.93810 25334 ft 424 kts 80°
2026-05-03 21:22 51.87197 0.98126 25748 ft 427 kts 80°
2026-05-03 21:22 51.87723 1.02605 26166 ft 430 kts 78°
2026-05-03 21:22 51.88405 1.07320 26593 ft 432 kts 76°
2026-05-03 21:22 51.89174 1.11981 27004 ft 435 kts 74°
2026-05-03 21:23 51.90014 1.16764 27407 ft 438 kts 73°
2026-05-03 21:23 51.90856 1.21451 27785 ft 440 kts 73°
2026-05-03 21:23 51.91715 1.26220 28153 ft 443 kts 73°
2026-05-03 21:23 51.92579 1.31029 28508 ft 445 kts 73°
2026-05-03 21:24 51.93441 1.35856 28820 ft 448 kts 73°
2026-05-03 21:24 51.94306 1.40717 28931 ft 449 kts 74°
2026-05-03 21:24 51.96026 1.50438 28999 ft 449 kts 74°
2026-05-03 21:25 51.96881 1.55294 28854 ft 446 kts 74°
2026-05-03 21:25 51.97728 1.60116 28399 ft 443 kts 74°
2026-05-03 21:25 51.98567 1.64902 27985 ft 439 kts 74°
2026-05-03 21:25 51.99395 1.69646 27734 ft 438 kts 74°
2026-05-03 21:26 52.00172 1.74445 27487 ft 439 kts 76°
2026-05-03 21:26 52.00907 1.79244 27237 ft 437 kts 76°
2026-05-03 21:26 52.01633 1.84027 26986 ft 435 kts 76°
2026-05-03 21:26 52.02358 1.88782 26735 ft 433 kts 76°
2026-05-03 21:27 52.03084 1.93523 26487 ft 432 kts 76°
2026-05-03 21:27 52.03810 1.98248 26237 ft 430 kts 76°
2026-05-03 21:27 52.04533 2.02954 25987 ft 429 kts 76°
2026-05-03 21:27 52.05250 2.07633 25737 ft 427 kts 76°
2026-05-03 21:28 52.05966 2.12315 25490 ft 425 kts 76°
2026-05-03 21:28 52.06675 2.16970 25237 ft 424 kts 76°
2026-05-03 21:28 52.07380 2.21610 24982 ft 422 kts 76°
2026-05-03 21:28 52.08081 2.26236 24738 ft 421 kts 76°
2026-05-03 21:29 52.08777 2.30846 24486 ft 419 kts 76°
2026-05-03 21:29 52.09467 2.35430 24241 ft 417 kts 76°
2026-05-03 21:29 52.10154 2.40007 23987 ft 416 kts 76°
2026-05-03 21:29 52.10842 2.44568 23736 ft 414 kts 75°
2026-05-03 21:30 52.11769 2.48994 23487 ft 412 kts 66°
2026-05-03 21:30 52.13040 2.53153 23235 ft 411 kts 59°
2026-05-03 21:30 52.14500 2.57131 23064 ft 408 kts 59°
2026-05-03 21:30 52.15949 2.61114 23001 ft 409 kts 59°
2026-05-03 21:31 52.17392 2.65106 23000 ft 409 kts 59°
2026-05-03 21:31 52.18834 2.69104 23000 ft 409 kts 59°
2026-05-03 21:31 52.20275 2.73104 23001 ft 409 kts 59°
2026-05-03 21:31 52.21714 2.77102 23001 ft 409 kts 59°
2026-05-03 21:32 52.23152 2.81104 23001 ft 409 kts 59°
2026-05-03 21:32 52.24592 2.85115 23001 ft 409 kts 59°
2026-05-03 21:32 52.26027 2.89120 23000 ft 409 kts 59°
2026-05-03 21:32 52.27466 2.93140 22816 ft 411 kts 59°
2026-05-03 21:33 52.28910 2.97184 22290 ft 414 kts 59°
2026-05-03 21:33 52.30364 3.01260 21622 ft 415 kts 59°
2026-05-03 21:33 52.31806 3.05310 21067 ft 410 kts 59°
2026-05-03 21:33 52.33231 3.09317 20510 ft 406 kts 59°
2026-05-03 21:34 52.34639 3.13288 19951 ft 401 kts 59°
2026-05-03 21:34 52.36032 3.17218 19389 ft 397 kts 59°
2026-05-03 21:34 52.37404 3.21097 18852 ft 393 kts 59°
2026-05-03 21:34 52.38766 3.24950 18285 ft 388 kts 59°
2026-05-03 21:35 52.40109 3.28760 17751 ft 384 kts 59°
2026-05-03 21:35 52.41437 3.32531 17206 ft 380 kts 59°
2026-05-03 21:35 52.42750 3.36265 16678 ft 377 kts 60°
2026-05-03 21:35 52.44017 3.39996 16143 ft 373 kts 64°
2026-05-03 21:36 52.44995 3.43913 15624 ft 370 kts 72°
2026-05-03 21:36 52.45643 3.47964 15092 ft 366 kts 77°
2026-05-03 21:36 52.46213 3.52009 14579 ft 363 kts 77°
2026-05-03 21:36 52.46790 3.56024 14063 ft 360 kts 76°
2026-05-03 21:37 52.47363 3.59994 13555 ft 356 kts 76°
2026-05-03 21:37 52.47928 3.63930 13053 ft 353 kts 76°
2026-05-03 21:37 52.48486 3.67837 12556 ft 350 kts 77°
2026-05-03 21:37 52.49038 3.71717 12058 ft 347 kts 77°
2026-05-03 21:38 52.49583 3.75564 11568 ft 344 kts 77°
2026-05-03 21:38 52.50121 3.79375 11084 ft 342 kts 77°
2026-05-03 21:38 52.50653 3.83154 10594 ft 339 kts 77°
2026-05-03 21:38 52.51175 3.86870 10357 ft 328 kts 77°
2026-05-03 21:39 52.51677 3.90450 10225 ft 315 kts 77°
2026-05-03 21:39 52.52151 3.93879 10099 ft 302 kts 79°
2026-05-03 21:39 52.52230 3.97277 9777 ft 297 kts 98°
2026-05-03 21:39 52.51656 4.00457 9619 ft 287 kts 113°
2026-05-03 21:40 52.50886 4.03523 9575 ft 293 kts 112°
2026-05-03 21:40 52.50131 4.06608 9511 ft 291 kts 112°
2026-05-03 21:40 52.49383 4.09688 9458 ft 290 kts 112°
2026-05-03 21:40 52.48634 4.12767 9392 ft 291 kts 112°
2026-05-03 21:41 52.47885 4.15838 9269 ft 290 kts 112°
2026-05-03 21:41 52.47135 4.18905 9150 ft 289 kts 112°
2026-05-03 21:41 52.46384 4.21967 9037 ft 289 kts 112°
2026-05-03 21:41 52.45634 4.25019 8911 ft 288 kts 112°
2026-05-03 21:42 52.44896 4.28020 8802 ft 288 kts 112°
2026-05-03 21:42 52.44149 4.31056 8683 ft 287 kts 112°
2026-05-03 21:42 52.43489 4.33731 8572 ft 287 kts 112°
2026-05-03 21:42 52.42743 4.36753 8461 ft 286 kts 112°
2026-05-03 21:43 52.41995 4.39779 8349 ft 286 kts 112°
2026-05-03 21:43 52.41249 4.42792 8228 ft 285 kts 112°
2026-05-03 21:43 52.40503 4.45800 8114 ft 285 kts 112°
2026-05-03 21:43 52.39757 4.48806 8000 ft 284 kts 112°
2026-05-03 21:44 52.39003 4.51837 7877 ft 284 kts 112°
2026-05-03 21:44 52.38555 4.54910 7730 ft 282 kts 90°
2026-05-03 21:44 52.38703 4.58121 7611 ft 284 kts 84°
2026-05-03 21:44 52.38898 4.61333 7486 ft 283 kts 84°
2026-05-03 21:45 52.39093 4.64526 7361 ft 282 kts 84°
2026-05-03 21:45 52.39285 4.67724 7235 ft 282 kts 84°
2026-05-03 21:45 52.39472 4.70908 7068 ft 282 kts 84°
2026-05-03 21:45 52.39657 4.74109 6706 ft 283 kts 84°
2026-05-03 21:46 52.39841 4.77315 6344 ft 282 kts 84°
2026-05-03 21:46 52.40022 4.80493 5981 ft 279 kts 84°
2026-05-03 21:46 52.40201 4.83653 5622 ft 277 kts 84°
2026-05-03 21:46 52.40373 4.86788 5254 ft 275 kts 85°
2026-05-03 21:47 52.40490 4.89901 4889 ft 273 kts 87°
2026-05-03 21:47 52.40578 4.93002 4536 ft 271 kts 87°
2026-05-03 21:47 52.40664 4.96076 4177 ft 269 kts 87°
2026-05-03 21:47 52.40753 4.99131 3819 ft 268 kts 87°
2026-05-03 21:48 52.40846 5.02165 3475 ft 266 kts 87°
2026-05-03 21:48 52.40619 5.05110 3175 ft 261 kts 112°
2026-05-03 21:48 52.39590 5.07481 2927 ft 253 kts 142°
2026-05-03 21:48 52.38051 5.08638 2823 ft 239 kts 173°
2026-05-03 21:49 52.36427 5.08711 2687 ft 229 kts 188°
2026-05-03 21:49 52.34956 5.07902 2564 ft 227 kts 213°
2026-05-03 21:49 52.33718 5.06253 2394 ft 227 kts 230°
2026-05-03 21:49 52.32957 5.04057 2300 ft 224 kts 252°
2026-05-03 21:50 52.32635 5.01650 2188 ft 215 kts 263°
2026-05-03 21:50 52.32507 4.99312 2081 ft 196 kts 267°
2026-05-03 21:50 52.32434 4.97201 2028 ft 186 kts 267°
2026-05-03 21:50 52.32362 4.95114 1818 ft 176 kts 267°
2026-05-03 21:51 52.32297 4.93220 1607 ft 159 kts 267°
2026-05-03 21:51 52.32238 4.91502 1419 ft 143 kts 267°
2026-05-03 21:51 52.32186 4.89954 1237 ft 134 kts 267°
2026-05-03 21:51 52.32133 4.88401 1060 ft 136 kts 267°
2026-05-03 21:52 52.32081 4.86871 883 ft 135 kts 267°
2026-05-03 21:52 52.32029 4.85338 699 ft 135 kts 267°
2026-05-03 21:52 52.31977 4.83811 527 ft 135 kts 267°
2026-05-03 21:52 52.31924 4.82284 352 ft 134 kts 267°
2026-05-03 21:53 52.31873 4.80754 166 ft 135 kts 267°
2026-05-03 21:53 52.31822 4.79224 6 ft 135 kts 267°
2026-05-03 21:53 52.31775 4.77820 -3 ft 105 kts 266°
2026-05-03 21:53 52.31749 4.77107 -4 ft 24 kts 261°
2026-05-03 21:54 52.31678 4.76858 -4 ft 25 kts 235°
2026-05-03 21:54 52.31610 4.76685 -3 ft 16 kts 238°
2026-05-03 21:54 52.31542 4.76530 -3 ft 18 kts 222°
2026-05-03 21:54 52.31474 4.76448 -3 ft 18 kts 232°
2026-05-03 21:55 52.31455 4.76166 -3 ft 20 kts 265°
2026-05-03 21:55 52.31450 4.76004 -3 ft 22 kts 268°
2026-05-03 21:55 52.31443 4.75746 -3 ft 24 kts 267°
2026-05-03 21:55 52.31430 4.75491 -3 ft 15 kts 253°
2026-05-03 21:56 52.31353 4.75477 -3 ft 6 kts 138°
2026-05-03 21:56 52.31356 4.75556 -3 ft 9 kts 83°
2026-05-03 21:56 52.31357 4.75588 -3 ft 3 kts 87°
2026-05-03 21:56 52.31357 4.75596 -3 ft 0 kts 87°